Location: Little Suamico
(44.7175°N, 88.0093°W)
Time: 17:00:54
(UTC+00:00)

ISS - Pass Details

Date: 24 April 2021
Orbit: 417 x 422 km, 51.6° (Epoch: 17 May)

Event Time Altitude Azimuth Distance (km) Brightness Sun altitude
Exits shadow 09:55:48 - 186° (S) 2,148 -0.5 -10.0°
Reaches altitude 10° 09:58:10 10° 160° (SSE) 1,496 -1.0 -9.6°
Maximum altitude 09:59:46 13° 132° (SE) 1,337 -1.0 -9.3°
Drops below altitude 10° 10:01:21 10° 103° (ESE) 1,503 -0.2 -9.1°
Sets 10:04:21 0° 74° (ENE) 2,373 2.0 -8.6°
